Location: Unspecified
(0.0000°N, 0.0000°E)
Time: 10:43:42
(UTC+00:00)

Envisat - Pass Details

Date: 16 February 2019
Orbit: 764 x 766 km, 98.2° (Epoch: 22 April)

Event Time Altitude Azimuth Distance (km) Brightness Sun altitude
Rises 19:26:16 0° 178° (S) 3,228 6.4 -17.6°
Reaches altitude 10° 19:28:37 10° 183° (S) 2,300 5.7 -18.2°
Maximum altitude 19:33:32 51° 258° (WSW) 954 3.9 -19.4°
Drops below altitude 10° 19:38:26 10° 333° (NNW) 2,292 5.6 -20.6°
Sets 19:40:47 0° 339° (NNW) 3,216 6.3 -21.2°
